Terminal Aerodrome Forecast
Issued by NWS Huntsville, AL

Home | Current Version | Previous Version | Text Only | Print | Product List | Glossary On
Versions: 1 2 3 4 5 6 7 8 9 10 11 12 13 14 15 16 17 18 19 20 21 22 23 24 25 26 27 28 29 30 31 32 33 34 35 36 37 38
000
FTUS44 KHUN 302340
TAFHSV
TAF
KHSV 302340Z 3100/3124 10004KT P6SM FEW060 SCT120 BKN250
     FM310600 08004KT 5SM BR BKN025
      TEMPO 3110/3113 1SM BR OVC008
     FM311400 VRB02KT P6SM SCT035 BKN050=

USA.gov is the U.S. government's official web portal to all federal, state and local government web resources and services.